Terminal Aerodrome Forecast
Issued by NWS

Home | Current Version | Previous Version | Text Only | Print | Product List | Glossary On
Versions: 1 2 3 4 5 6 7 8 9 10 11 12 13 14 15 16 17 18 19 20 21 22 23 24 25 26 27 28 29 30 31 32
000
FTUS44 KTSA 260700 AAA
TAFRVS
TAF AMD
KRVS 260704Z 2607/2706 17004KT P6SM SCT015 BKN100
      TEMPO 2607/2608 2SM BR BKN015
     FM260800 VRB02KT 2SM BR OVC007
     FM261500 21006KT P6SM SCT250
     FM261800 19011KT P6SM SCT100 PROB30 2700/2706 -TSRA BKN050CB=

USA.gov is the U.S. government's official web portal to all federal, state and local government web resources and services.